Regional Weather Roundup
Issued by NWS Memphis, TN

Home | Current Version | Previous Version | Text Only | Print | Product List | Glossary On
Versions: 1 2 3 4 5 6 7 8 9 10 11 12 13 14 15 16 17 18 19 20 21 22 23 24 25 26 27 28 29 30 31 32 33 34 35 36 37 38 39 40 41 42 43 44 45 46 47 48 49 50
000
ASUS44 KMEG 290510
RWRMEG
MEMPHIS CWA HOURLY WEATHER ROUNDUP
NATIONAL WEATHER SERVICE MEMPHIS TN
1200 AM CDT WED JUL 29 2015

...WEST TENNESSEE...

CITY           SKY/WX    TMP DP  RH WIND       PRES   REMARKS
MEMPHIS INTL   CLEAR     89  74  60 SE5       30.00S HX  98
NWS MEMPHIS      N/A     81 N/A N/A MISG        N/A
JACKSON        PTCLDY    79  74  84 E7        29.99F
LEXINGTON      CLEAR     72  72 100 VRB3      30.00R
DYERSBURG        N/A    N/A N/A N/A MISG        N/A
PARIS          CLEAR     72  70  94 CALM      30.01F


...EASTERN ARKANSAS...

CITY           SKY/WX    TMP DP  RH WIND       PRES   REMARKS
JONESBORO      CLEAR     83  79  88 S3        29.98R HX  94
WEST MEMPHIS   CLEAR     82  79  90 S3        29.98S HX  92
BATESVILLE     CLEAR     84  75  74 CALM      29.98S HX  92
NEWPORT        CLEAR     83  80  90 CALM      29.99R HX  95
WALNUT RIDGE   CLEAR     82  77  83 S5        29.97S HX  91
BLYTHEVILLE    CLEAR     84  81  90 S5        29.98S HX  99
SEARCY         CLEAR     80  77  90 CALM      29.99R
STUTTGART      CLEAR     84  75  74 SE7       29.98S HX  92
PINE BLUFF     CLEAR     80  77  90 CALM      29.99R
MONTICELLO     CLEAR     82  77  84 CALM      29.99S HX  90


...NORTH MISSISSIPPI...

CITY           SKY/WX    TMP DP  RH WIND       PRES   REMARKS
TUPELO         CLEAR     82  75  79 CALM      30.00S
OLIVE BRANCH     N/A     81  81 100 CALM      30.00F HX  91
TUNICA         CLEAR     81  79  94 SE3       30.00S
CLARKSDALE     CLEAR     81  81 100 CALM      30.00S HX  91
CORINTH        CLEAR     82  75  78 CALM      29.97F
GREENWOOD      CLEAR     80  77  90 CALM      29.99F
COLUMBUS       CLEAR     79  77  94 CALM      30.00S
STARKVILLE     FAIR      77  75  94 CALM      30.01S FOG
GOLDEN TRIANGL CLEAR     81  73  78 CALM      30.00S


...SOUTHEAST MISSOURI...

CITY           SKY/WX    TMP DP  RH WIND       PRES   REMARKS
WEST PLAINS    CLEAR     77  74  90 CALM      30.05R FOG
POPLAR BLUFF   CLEAR     81  79  94 CALM      29.98R HX  90
CAPE GIRARDEAU MOCLDY    82  78  88 SE9       29.98R HX  91


...NORTHWEST ALABAMA...

CITY           SKY/WX    TMP DP  RH WIND       PRES   REMARKS
MUSCLE SHOALS  MOCLDY    81  71  71 CALM      30.01F


...MIDDLE TENNESSEE...

CITY           SKY/WX    TMP DP  RH WIND       PRES   REMARKS
NASHVILLE      CLOUDY    76  75  97 CALM      30.00F
CLARKSVILLE    CLOUDY    74  72  93 E3        30.00R


...WESTERN KENTUCKY...

CITY           SKY/WX    TMP DP  RH WIND       PRES   REMARKS
PADUCAH        CLOUDY    77  73  87 S7        29.99R
FORT CAMPBELL  CLOUDY    74  72  92 SW2       30.00R


...CENTRAL ARKANSAS...

CITY           SKY/WX    TMP DP  RH WIND       PRES   REMARKS
LITTLE ROCK    CLEAR     84  75  74 SW3       29.98S HX  92


SKY/WX REPORTED AS FAIR MEANS FEW OR NO CLOUDS BELOW
12 THOUSAND FEET.



USA.gov is the U.S. government's official web portal to all federal, state and local government web resources and services.